Regional Weather Roundup
Issued by NWS

Home | Current Version | Previous Version | Graphics & Text | Print | Product List | Glossary On
Versions: 1 2 3 4 5 6 7 8 9 10 11 12 13 14 15 16 17 18 19 20 21 22 23 24 25 26 27 28 29 30 31 32 33 34 35 36 37 38 39 40 41 42 43 44 45 46 47 48 49 50
000
ASUS43 KMKX 021411
RWRWI

WISCONSIN REGIONAL WEATHER ROUNDUP
NATIONAL WEATHER SERVICE MILWAUKEE/SULLIVAN WI
900 AM CDT MON MAY 02 2016

NOTE: "FAIR" INDICATES FEW OR NO CLOUDS BELOW 12,000 FEET WITH NO
SIGNIFICANT WEATHER AND/OR OBSTRUCTIONS TO VISIBILITY.

WIZ001-002-006>008-014>016-023>028-021500-
NORTHWEST WISCONSIN

CITY           SKY/WX    TMP DP  RH WIND       PRES   REMARKS
SUPERIOR ARPT  SUNNY     44  36  72 NE3       30.14F
ASHLAND        SUNNY     46  38  73 CALM      30.14F
HAYWARD        SUNNY     51  35  54 CALM      30.12S
SIREN          SUNNY     49  35  60 CALM      30.12F
CUMBERLAND     SUNNY     46  36  66 CALM      30.11F
RICE LAKE      SUNNY     50  37  61 CALM      30.13S
CHETEK         SUNNY     50  37  61 CALM      30.12S
LADYSMITH      SUNNY     51  38  62 CALM      30.14S
EAU CLAIRE       N/A     54  37  52 VRB5      30.10F
MENOMONIE      SUNNY     55  43  63 CALM      30.11S
NEW RICHMOND   SUNNY     52  37  57 W5        30.11F
OSCEOLA        SUNNY     49  38  65 CALM      30.15S
$$

WIZ003>005-009-010-017-018-021500-
NORTH CENTRAL WISCONSIN

CITY           SKY/WX    TMP DP  RH WIND       PRES   REMARKS
MANITOWISH WTR SUNNY     51  34  53 W8        30.12S
ARBOR VITAE    SUNNY     52  35  52 W6        30.12S
WOODRUFF       SUNNY     52  35  52 W6        30.12S
RHINELANDER    SUNNY     50  32  50 CALM      30.12F
EAGLE RIVER    SUNNY     50  31  47 NW3       30.11F
LAND O LAKES   SUNNY     51  31  47 CALM      30.13S
PHILLIPS       SUNNY     51  35  55 CALM      30.11F
TOMAHAWK       SUNNY     49  34  56 CALM      30.12F
MEDFORD        SUNNY     49  35  58 CALM      30.11F
MERRILL        SUNNY     50  34  53 CALM      30.12F
$$

WIZ029-030-035-036-043>047-021500-
CENTRAL WISCONSIN

CITY           SKY/WX    TMP DP  RH WIND       PRES   REMARKS
WAUSAU         SUNNY     52  34  50 W5        30.10F
MOSINEE        SUNNY     48  36  61 CALM      30.13S
MARSHFIELD     SUNNY     52  35  52 E3        30.10F
STEVENS POINT  SUNNY     49  32  52 CALM      30.12S
WAUPACA        SUNNY     53  35  51 N3        30.12S
WAUTOMA        SUNNY     51  34  52 NE10      30.11F
WISC RAPIDS    SUNNY     53  33  46 CALM      30.13S
CAMP DOUGLAS   SUNNY     50  48  93 CALM      30.11S
$$

WIZ011>013-019>022-031-037>040-048>050-021500-
NORTHEAST WISCONSIN

CITY           SKY/WX    TMP DP  RH WIND       PRES   REMARKS
ANTIGO         SUNNY     49  32  52 CALM      30.11F
SHAWANO        SUNNY     53  35  50 NE5       30.12S
OCONTO         SUNNY     52  36  54 N8        30.11S
STURGEON BAY   SUNNY     46  34  61 N10       30.13S
GREEN BAY      LGT RAIN  51  36  56 NE7       30.11S
MANITOWOC      SUNNY     51  37  58 N8        30.09F
APPLETON       SUNNY     48  34  57 N9        30.09F
CLINTONVILLE   SUNNY     52  34  50 NE7       30.11S
OSHKOSH        SUNNY     50  37  61 N7        30.10S
$$

WIZ032>034-041-042-053>061-021500-
SOUTHWEST WISCONSIN

CITY           SKY/WX    TMP DP  RH WIND       PRES   REMARKS
LA CROSSE      SUNNY     49  39  68 CALM      30.12F
SPARTA         SUNNY     49  40  70 CALM      30.12S
VIROQUA        SUNNY     51  40  68 E3        30.12R
BOSCOBEL       PTSUNNY   44  43  96 CALM      30.13S FOG
PRAIRIE DU CHI FOG       43  42  95 CALM      30.13S VSB 1/2
PLATTEVILLE    SUNNY     51  46  82 N7        30.10S
$$

WIZ056-057-062-063-064-067-068-021500-
SOUTH CENTRAL WISCONSIN

CITY           SKY/WX    TMP DP  RH WIND       PRES   REMARKS
REEDSBURG      SUNNY     49  41  75 CALM      30.11S
BARABOO/DELLS  SUNNY     49  37  65 N3        30.11S
LONE ROCK      SUNNY     49  43  80 W3        30.12S
MINERAL POINT  SUNNY     52  41  66 NE5       30.10R
MADISON        MOSUNNY   51  40  65 N5        30.10R
MIDDLETON      SUNNY     50  41  71 N3        30.10F
WATERTOWN      SUNNY     51  39  64 CALM      30.09R
MONROE         SUNNY     50  41  71 N8        30.08S
JANESVILLE     SUNNY     54  39  58 NE8       30.08S
$$

WIZ051-052-058>065-066-070>072-021500-
SOUTHEAST WISCONSIN

CITY           SKY/WX    TMP DP  RH WIND       PRES   REMARKS
MILWAUKEE      MOSUNNY   50  40  68 N9        30.08S
WAUKESHA       SUNNY     48  36  61 NE6       30.09S
MILWAUKEE/TIMM SUNNY     50  36  57 CALM      30.09R
RACINE         SUNNY     48  39  71 N10       30.09S
BURLINGTON     SUNNY     50  39  65 NE6       30.08S
KENOSHA        SUNNY     52  41  66 N9        30.07F
FOND DU LAC    SUNNY     51  40  65 N7        30.10S
SHEBOYGAN      SUNNY     52  37  56 N6        30.08S
WEST BEND      SUNNY     52  36  54 NE7       30.08S
JUNEAU         SUNNY     49  39  67 N9        30.10R
$$

LSZ147-162-021500-
LAKE SUPERIOR

STATION/POSITION TIME  TEMP    WIND        PRES    WAVE
                       AIR SEA DIR/SP/G            HT/PER
                 (UTC) (F)     (DEG/KT/KT) (MB)    (FT/S)
W MID LAKE BUOY  1350   38 37  330/  2/  2 1021.5F   1
DEVILS ISLAND    1400   40     240/  2/  3 1021.4F
SAXON HARBOR     1300   38     200/  2/  4 1020.3F
$$

LMZ867-665-643>646-021500-
LAKE MICHIGAN

STATION/POSITION TIME  TEMP    WIND        PRES    WAVE
                       AIR SEA DIR/SP/G            HT/PER
                 (UTC) (F)     (DEG/KT/KT) (MB)    (FT/S)
CHAMBERS ISLAND  1340   45      60/  2/  2 1020.0R
N MID LAKE BUOY  1350   39 39  350/  4/  4 1019.4R   0
NORTHPORT PIER   1300   43     310/  7/ 10 1019.3R
KEWAUNEE LAKESHO 1300   47     320/  5/  8 1018.5S
SHEBOYGAN LAKESH 1400   44      10/  9/ 10 1019.7R
PORT WASHINGTON  1340   49      50/  7/  9 1019.3F
S MID LAKE BUOY  1350   42 40   30/  6/  8 1017.9F   1/ 4
KENOSHA   LAKESH 1400   45      20/ 11/ 12 1018.3S
$$

TC  - TEMPERATURE IN CELSIUS
VSB - VISIBILITY IN STATUTE MILES
WCI - WIND CHILL INDEX
HX  - HEAT INDEX




USA.gov is the U.S. government's official web portal to all federal, state and local government web resources and services.